CAPE
1635 1467 1557 1990 2008 2008 1842 2044 2012 2009 2075 2029 2036 2068 2109 2071 1952 1749 1709 1599 1482 1246 1057 756 819 855 815 763 668 1129 837 595 623 675 699 804 722 683 657 540 766 988 954 937 1229 1126 1216 1336 1205 1076 1039 1202 1272 1229 1323 1278 1178 1135 1182 1174 1121 1131 1162 1234 1243 1116 998 1286 1306 1092 936 1202 1621 1652 1474 1438 1316 1189 998 804 845 590 641 840 950
1882 1437 1717 1706 1906 1970 1792 1867 1839 1899 1962 1893 1869 1858 1893 1872 1773 1625 1562 1388 1218 1067 930 857 859 812 790 725 626 548 634 688 693 774 1038 1036 932 710 718 769 978 1115 998 1309 1166 1188 1211 1146 1124 1067 1096 1354 1541 1608 1523 1332 1162 1169 1082 1086 1052 1115 1252 1180 1290 1159 1113 1308 1193 1163 1202 1166 1337 1427 1308 1295 1227 1071 730 604 732 681 740 750 666
1798 1514 1651 1628 1908 1919 1766 1717 1769 1794 1784 1742 1654 1712 1669 1610 1514 1535 1360 1196 1103 1026 996 859 855 801 756 601 628 658 733 659 756 884 741 760 795 794 974 1336 1340 1288 1128 1185 1247 1350 1192 1407 1236 1264 1372 1462 1490 1296 1324 1351 1359 1209 1185 1174 1158 1177 1163 1295 1422 1427 1356 1353 1445 1441 1357 1285 1257 1212 1098 1132 1158 1028 742 594 406 341 402 494 592
1907 1426 1630 1829 1871 1811 1801 1711 1711 1585 1582 1666 1695 1737 1714 1666 1540 1400 1254 1303 1238 1139 881 785 818 835 844 730 684 581 523 432 530 911 838 882 992 1094 1370 1427 1487 1403 1257 1446 1306 1146 1217 1319 1314 1195 1214 1218 1294 1338 1411 1354 1161 1022 1146 1175 1170 1132 1176 1290 1330 1399 1241 1337 1292 1017 1006 1078 980 979 1063 990 984 987 976 766 487 424 379 336 662
1834 1410 1473 1489 1631 1762 1822 1736 1703 1567 1526 1450 1513 1453 1528 1457 1371 1241 1221 1298 1183 989 780 680 761 752 639 622 560 565 534 632 1053 1356 1263 1316 1342 1253 1608 1610 1642 1647 1496 1468 1233 1218 1335 1263 1322 1244 1228 1300 1376 1341 1525 1375 1172 997 879 938 1113 1236 1213 1238 1241 1198 1244 1151 1193 855 824 755 1029 952 912 871 737 716 790 878 665 414 238 198 221
1791 1381 1491 1247 1124 1661 1721 1665 1720 1605 1519 1378 1373 1339 1234 1260 1120 1104 1094 1020 926 899 763 641 740 774 632 545 452 555 542 652 1171 1362 1337 1625 1578 1458 1507 1674 1690 1419 1548 1247 1278 1286 1457 1302 1384 1224 1168 1267 1441 1450 1445 1393 1252 1090 936 953 1248 1255 1229 1204 1153 1086 992 990 1605 487 416 496 549 497 527 652 600 519 400 395 479 484 518 350 160
1922 1410 1499 1276 1180 1538 1657 1688 1634 1525 1372 1393 1375 1308 1142 1172 1131 1034 1015 944 881 793 701 712 708 697 654 627 648 601 597 686 1095 1386 1441 1909 1810 1786 1586 1419 1706 1463 1482 1483 1455 1453 1388 1207 1146 1196 1242 1271 1266 1237 1357 1411 1286 1149 1213 1128 1054 927 807 689 648 646 760 1299 442 322 316 324 233 166 189 296 323 276 286 336 280 223 234 230 204
1878 1642 1434 1318 1321 1516 1703 1690 1520 1422 1355 1385 1254 1203 1195 1146 1116 1043 980 882 830 759 733 710 718 691 654 665 637 620 760 726 992 1313 1420 2063 1997 1750 1608 1552 1687 1637 1420 1520 1522 1457 1344 1154 1156 1195 1114 1151 1213 1132 1212 1164 1099 1113 1046 883 707 599 523 400 243 180 238 194 340 314 261 183 128 144 154 296 220 294 336 355 466 425 378 304 321
1914 1464 1341 1497 1319 1352 1719 1614 1516 1388 1417 1305 1174 1180 1178 1087 1030 1002 945 919 828 729 760 743 721 747 768 804 729 713 692 661 876 1201 1482 1861 1972 1840 1813 1747 1661 1627 1605 1709 1705 1362 1110 1015 1170 1169 1082 1109 1237 1231 1186 1131 1148 1127 1026 838 573 464 409 342 292 283 111 101 74 176 36 102 131 152 532 662 597 702 901 957 965 898 880 949 919
1675 1718 1486 1510 1604 1712 1740 1613 1486 1301 1268 1205 1171 1164 1087 1165 1070 1011 988 930 852 832 781 784 805 821 772 841 1062 778 698 740 802 1211 1660 1952 2074 1836 1793 1768 1574 1426 1400 1311 1217 1012 896 843 904 1044 1130 1189 1112 1203 1195 1156 1172 1002 904 828 789 718 545 354 242 205 298 294 206 201 294 288 148 516 804 987 1167 1282 1189 1206 1212 1210 1180 1111 1144
1966 1796 1665 1540 1340 1761 1682 1605 1476 1219 1142 1168 1128 1137 1163 1158 1066 1032 962 892 898 872 846 785 756 779 854 854 838 808 684 682 762 1235 1564 1576 1504 1618 1552 1327 1559 1446 1184 1172 1098 894 838 1056 1452 1574 1507 1440 1392 1324 1275 1231 1192 1010 918 776 645 609 539 415 919 202 129 100 182 239 588 860 804 1061 1331 1282 1176 1120 1076 1028 1010 977 982 985 1000
1692 1984 1665 1558 1837 1656 1692 1598 1425 1323 1134 1152 1193 1106 1169 1018 988 908 937 1041 948 899 1118 1092 1019 897 917 826 760 733 706 723 857 1376 1442 1326 1231 1212 1172 1182 1197 1122 1137 1059 894 776 954 1329 1251 1260 1369 1530 1522 1490 1411 1359 1112 981 799 726 673 558 467 504 210 254 361 298 228 230 162 247 409 995 1186 1118 1019 1110 990 974 958 894 852 784 767
1958 1808 1778 1851 1262 1706 1699 1547 1398 1362 1301 1215 1230 1089 1023 1003 927 943 1086 1297 1219 1133 1140 1162 1245 1238 1250 1068 923 955 831 887 1315 1432 1349 1291 1243 1184 1215 1099 1148 1058 1122 1002 782 793 1204 1462 1436 1441 1627 1631 1612 1567 1393 1178 940 807 716 604 516 444 339 528 291 221 58 154 272 238 284 608 820 969 1025 1158 1101 1035 976 950 876 783 816 856 821
1863 1858 1912 1527 1306 1657 1700 1629 1609 1630 1414 1377 1289 1207 1097 1147 1110 1170 1363 1386 1432 1321 1267 1299 1362 1442 1386 1462 1433 1485 1423 1324 1388 1330 1321 1406 1327 1166 1085 1045 1040 1118 1120 910 780 864 1198 1482 1547 1572 1545 1530 1397 1229 1140 984 861 741 606 581 477 319 223 182 237 358 340 274 312 368 459 704 880 951 871 1001 886 870 793 824 740 638 761 782 749
1994 1926 2036 1777 1679 1232 1658 1846 1818 1637 1550 1458 1340 1310 1352 1336 1357 1420 1555 1615 1586 1503 1412 1330 1364 1544 1776 1758 1526 1352 1249 1266 1299 1469 1284 1064 1091 1152 1215 1196 1203 1295 1048 827 782 915 1230 1408 1541 1511 1414 1336 1259 1197 1053 881 796 648 483 389 308 288 446 351 309 308 280 286 399 342 410 728 977 730 641 705 589 583 601 510 545 581 591 594 546
1979 1804 1913 2016 1651 1543 1544 1754 1760 1650 1676 1498 1441 1477 1518 1494 1558 1634 1662 1666 1619 1614 1496 1347 1372 1657 1734 1766 1624 1463 1377 1382 1531 1405 1242 1218 1266 1209 1264 1249 1171 1043 1048 983 1041 1251 1576 1539 1468 1432 1338 1202 1194 1062 954 824 598 536 467 452 395 321 374 266 412 452 466 420 406 375 362 506 672 464 293 293 345 319 494 435 386 442 386 338 333
1691 1667 2216 1956 1711 1754 1361 1601 1627 1768 1827 1739 1621 1612 1622 1618 1686 1695 1690 1706 1649 1769 1639 1415 1439 1597 1564 1626 1683 1687 1696 1743 1603 1483 1426 1389 1240 1245 1021 1050 1080 1037 1170 1230 1240 1522 1794 1762 1511 1399 1358 1229 1060 902 796 670 542 486 494 482 424 342 389 320 471 529 538 465 443 390 282 287 348 439 340 250 235 266 267 248 244 255 297 263 244
1726 2183 2384 2129 1954 1955 1702 1561 1566 1619 1462 1787 1827 1748 1750 1749 1730 1744 1746 1716 1805 1910 1699 1477 1503 1543 1552 1526 1708 1984 2054 1892 1794 1685 1570 1472 1342 1176 1119 1055 971 1073 1118 1050 1460 1621 1715 1812 1615 1421 1287 1138 971 845 716 645 577 488 476 453 388 271 228 329 481 420 454 433 419 394 328 496 554 332 236 174 160 158 194 226 212 204 180 107 138
1916 2430 2367 2192 1852 2036 1846 1842 1804 1547 1434 1620 1338 1475 1888 1835 1889 1922 1769 1753 1855 1945 1893 1665 1570 1536 1566 1549 1900 2092 1960 1918 1851 1771 1536 1391 1278 1104 1099 973 889 962 1054 1240 1615 1702 1693 1696 1597 1382 1196 1038 905 744 618 551 571 490 432 410 297 238 240 335 381 358 488 508 436 304 185 465 364 376 474 430 383 343 271 203 213 170 170 158 206
2416 2352 2264 2318 1948 1912 1950 1824 1793 1886 1875 1954 1747 1676 1932 1955 2026 1993 1823 1832 1893 1964 1928 1816 1544 1522 1419 1462 1906 2049 1976 1992 1734 1309 1307 1263 1207 746 1182 1032 832 982 1109 1480 1569 1684 1739 1774 1580 1265 1138 968 855 686 591 521 478 480 399 325 287 262 512 510 496 480 564 478 350 246 384 475 393 363 321 230 210 168 153 163 159 161 116 141 123
2517 2281 2257 2120 1958 1942 1825 1806 2190 1628 2234 2282 2347 1964 2133 2023 2058 1965 1871 1900 1958 1915 1921 1826 1634 1484 1506 1652 1756 1669 1570 1659 1533 1176 1174 937 1477 1278 1070 954 970 1138 1272 1473 1550 1635 1735 1678 1435 1281 1042 922 789 654 639 611 527 430 350 272 250 497 535 644 617 650 594 510 444 304 374 332 187 194 205 160 135 113 140 126 141 104 36 93 68
2603 2357 2227 2065 1934 2137 2391 2153 2187 1541 2312 2174 2303 2163 2208 1914 1866 1958 1865 1885 1925 1932 1748 1361 1402 1229 1428 1740 1844 1903 1400 1371 1317 1064 988 1138 1279 1208 1053 910 952 1206 1433 1357 1488 1482 1557 1646 1427 1184 1012 824 695 696 696 651 485 364 310 251 553 626 818 791 716 522 572 556 373 277 229 227 204 196 178 142 124 58 97 97 81 89 97 60 52
1900 2003 2055 2170 2127 2072 1792 2009 1770 1659 1922 2205 2189 2170 2238 2154 1974 1980 1429 1421 1571 1559 1301 1205 1516 1189 1546 2076 1979 2005 2076 1790 1527 992 1089 903 1292 1234 1077 1061 954 1238 1492 1406 1465 1406 1337 1386 1292 1038 907 719 991 948 846 590 378 331 240 542 570 730 935 875 732 682 621 457 385 328 225 204 179 167 260 182 152 155 119 78 50 66 79 80 25
2344 2226 2108 1898 2288 1762 2228 1852 1927 1730 1861 1582 2029 2262 2251 2372 2214 2132 1935 1823 2003 1656 1481 1556 1586 1710 2121 2142 2246 2181 2152 2202 1369 1400 1148 1074 1289 1282 1110 951 975 1084 1328 1510 1388 1438 1325 1258 1137 945 763 713 1130 886 785 573 278 349 581 527 464 673 832 784 575 525 567 494 349 254 238 198 176 125 151 160 161 134 93 62 72 56 60 22 28
2336 1986 1921 2503 2287 2323 2088 2168 2399 2258 1887 2163 2210 2279 2467 2414 2249 2018 1934 1179 1846 1998 1835 1830 2021 2049 1923 2215 2344 2378 2218 2088 1971 1323 809 958 1045 991 954 583 620 834 1187 966 1124 1376 1439 1386 1149 628 972 1173 1067 959 810 629 591 539 542 529 624 722 671 708 663 655 591 394 258 144 155 160 132 113 86 77 66 78 158 101 64 59 53 37 11
1813 2183 1941 2142 2611 2473 2379 1929 2370 2232 2464 2433 2445 2384 2597 2367 2301 2158 1926 1888 1949 1928 2242 2227 2135 2246 2124 2248 2298 2445 2383 1948 1831 1509 1181 943 933 866 712 464 438 499 741 704 805 1174 1279 1112 872 933 1191 1176 1249 948 732 623 621 606 557 568 628 692 603 531 391 531 486 359 187 137 173 142 81 65 71 98 54 20 31 39 28 34 18 50 36
1952 1901 1834 2000 2561 2732 2824 2895 2694 2731 2693 2618 2511 2469 2543 2450 2438 2310 2079 1849 2102 1902 1953 2368 2304 2468 2415 2262 2446 2514 2097 1835 1963 2029 1352 1075 859 824 737 806 642 498 571 647 818 1121 940 1064 1260 1166 1237 1152 983 853 749 713 710 633 591 603 678 589 556 406 388 406 329 307 234 178 141 105 96 112 99 18 16 23 25 22 6 5 6 4 2
1728 1846 2037 2047 2960 2933 2866 1901 2902 2862 2839 2656 2733 2650 2698 2639 2554 2116 2028 2149 1910 1803 1870 2351 2529 2441 2408 2399 2563 1771 1588 1969 2230 2119 2012 1270 1056 881 832 829 511 494 457 483 754 840 893 972 995 1185 1043 1034 808 721 721 783 738 709 632 647 687 588 578 475 414 349 324 224 258 158 250 215 120 111 59 28 32 18 22 30 18 8 3 10 13
1966 2164 2232 2256 2369 2307 1956 2418 2438 2157 2586 2539 2586 2669 2746 2848 2640 2498 2139 1916 1765 1617 1392 1582 2258 2483 2596 2349 2251 1816 1312 1009 1561 2284 1735 1311 1172 933 854 799 722 445 389 382 590 749 914 998 956 1122 1064 1005 936 834 702 764 834 803 696 671 878 835 648 515 424 316 317 282 307 155 204 199 177 110 33 23 58 32 1 2 8 0 2 3 4
1835 2046 2093 2202 2445 2488 2233 2140 2097 2124 2102 2736 2559 2529 2724 2727 2709 2573 2306 1869 1761 1487 1544 1556 1706 2038 2189 2319 1803 1808 1493 1395 1370 1653 1716 1385 1330 1137 838 993 856 665 414 483 532 698 1026 935 1139 1070 970 952 903 847 774 769 674 824 749 810 706 699 615 538 360 334 303 145 261 158 158 143 75 89 232 37 8 1 6 6 3 2 4 2 2
1919 1784 1855 1754 1934 2079 1860 1927 2168 2064 2208 2194 2428 2496 2667 2678 2478 2469 2234 2060 1811 1681 1637 1551 1593 1711 1818 2446 2154 1937 2153 1892 1681 1581 1596 1279 1375 1203 1024 1004 969 655 502 420 558 603 1040 1046 1194 1111 1052 982 956 892 855 764 723 820 813 692 799 631 448 441 340 225 183 247 251 229 82 41 30 150 260 381 30 3 2 5 4 0 0 0 1
1606 1787 1754 1663 1832 1926 2046 1966 2142 2203 2312 1967 2149 2324 2418 2562 2579 2388 2310 2184 2057 2067 1897 1808 1682 1699 1779 2394 2455 2183 2071 2204 2165 2100 1825 1333 1360 1402 1225 1196 1154 777 724 543 510 664 892 894 1092 1040 941 972 1021 1000 918 917 893 744 771 793 631 578 501 405 390 407 374 348 283 205 188 76 109 137 130 203 31 2 2 4 3 3 1 6 2
1839 1804 1825 1694 1774 2019 2011 2008 2014 2076 2272 2074 1854 1931 2278 2365 2426 2378 2305 2242 2279 2208 2089 1997 1868 1748 1870 2292 2249 2086 2079 2095 2208 2199 1770 1540 1335 1257 1214 1137 1002 878 863 800 555 763 711 850 934 956 988 962 944 975 959 942 884 866 843 909 550 505 592 373 460 481 399 384 306 295 331 242 187 58 37 2 0 0 0 1 2 0 7 4 0
1534 1416 1448 1266 1240 1273 1560 1477 1656 1489 1279 1334 1232 1448 2059 2202 2135 2253 2181 2355 2252 2215 2084 2022 1910 1726 1829 2136 2155 1918 1896 2018 2014 2067 1807 1601 1549 1204 1163 1152 1061 1142 887 1014 678 626 629 791 772 896 902 949 926 888 902 1014 934 857 893 680 675 763 670 458 547 457 462 393 360 300 306 174 158 119 118 113 49 2 0 0 0 0 18 0 0
1523 1337 1332 1284 1076 1051 863 1100 906 1230 994 1203 952 1034 1167 1384 1542 1887 1914 2256 2153 2100 2130 1985 1779 1858 1857 1671 2249 2088 1575 1866 1916 2018 1743 1682 1762 1590 1187 1163 1036 990 966 962 793 591 563 685 666 704 899 832 755 764 914 1068 897 730 790 666 785 704 683 628 485 561 528 532 392 379 414 297 128 26 68 54 193 244 252 46 55 44 12 17 0
1531 1508 1216 1084 912 1027 1047 905 959 1396 1195 998 923 991 1038 1058 1253 1589 1699 1969 2063 2003 2036 2005 1839 1889 1941 1857 1770 2077 1326 1234 1539 1029 1230 1765 1708 1664 1509 1450 1385 1033 886 781 915 700 611 643 598 656 854 815 782 814 768 1011 810 738 786 697 665 693 909 832 815 775 653 514 618 738 638 423 130 50 14 28 8 121 361 99 54 26 31 19 13
1857 1467 1290 1222 1176 950 814 1060 1174 1260 1256 940 1034 1335 1647 1704 1625 1476 1710 1910 2054 2047 1981 2027 1792 1796 1904 1735 1781 2031 1927 1231 1231 1423 1730 1774 1702 1685 1624 1639 1533 1235 1009 918 846 721 794 686 771 675 710 744 775 760 767 988 776 746 684 644 580 615 994 1068 845 727 660 738 910 459 389 378 293 33 376 416 322 155 350 208 294 540 357 195 97
1762 1466 1830 1995 1418 1091 1443 1666 1510 1474 1360 1240 1293 1458 1629 1690 1688 1910 1968 1919 2086 2036 2086 2008 1936 1832 1822 1698 1694 1951 1889 1522 1205 1132 1734 1601 1755 1815 1682 1523 1305 1251 1151 1024 879 692 764 931 1022 858 1003 788 668 711 837 736 712 705 571 650 573 657 1142 1150 1116 658 848 735 749 702 272 453 215 192 222 529 664 621 358 516 747 704 520 368 274
1810 1598 1876 1949 1710 1442 1708 1658 1734 1537 1258 1392 1172 1216 1463 1837 1730 1850 1793 1940 1998 2050 2114 2094 1988 1927 1785 1604 1571 1644 1754 1700 1358 1099 1278 1617 1760 1685 1695 1341 1104 1033 1014 1020 829 679 812 1189 1452 1347 1216 974 773 654 695 550 633 595 493 571 886 1173 1248 1159 1115 921 928 895 1028 862 784 262 248 170 167 747 853 860 863 795 528 559 581 337 443
1823 1774 2227 1981 1907 1647 2089 2108 1943 1488 1207 1404 1317 1274 1342 1341 1407 1773 1673 1778 1994 1950 1994 1937 1890 1803 1589 1540 1697 1663 1611 1835 1665 1169 1004 1230 1916 1601 1612 1197 1164 1279 1132 802 545 625 1009 1396 1381 920 754 663 638 613 639 579 547 527 659 782 1036 1238 1188 1117 1232 1199 1153 939 802 661 563 412 203 172 517 840 758 882 821 924 891 692 662 444 113
1818 2059 2357 2394 2689 1916 1962 2317 2567 1843 1564 1317 1214 1144 1217 1361 1417 1511 1722 1985 1937 1792 1551 1806 1827 1786 1775 1555 1535 1499 1576 1452 1066 1034 991 1078 955 1095 1317 1238 1258 1353 1307 982 649 571 868 1674 1294 721 727 718 600 627 591 592 476 832 781 886 1082 1126 1203 1080 1082 1166 979 703 533 570 576 623 255 123 737 893 751 618 406 488 658 842 660 876 468
1893 2200 2491 2450 2235 2489 2357 2369 2263 1593 1474 1549 1431 1164 1347 1454 1537 1595 1706 1857 1856 1798 1754 1582 1658 1623 1644 1635 1677 1560 1532 1623 943 870 866 962 1031 1014 978 1083 1052 1633 1751 1600 1421 1186 954 984 1407 874 794 745 686 640 658 633 754 757 729 728 819 950 1183 1182 931 914 971 1069 670 517 629 740 577 330 654 608 348 384 393 531 568 606 630 748 831
2021 2339 2515 1966 1808 2148 1888 1774 1286 1230 1389 1573 1572 1525 1462 1568 1624 1691 1799 1903 2146 2182 2139 1996 1974 1872 1778 1586 1306 1116 1050 1195 1376 918 923 939 951 987 826 855 648 1238 1884 1823 1850 1716 1680 1503 1092 718 786 786 762 711 701 758 770 906 728 622 572 704 897 1000 934 753 614 793 563 683 870 837 814 408 637 275 257 555 485 464 502 737 716 644 734
1964 2016 1721 1718 1445 1504 1474 1260 1416 1425 1400 1508 1389 1607 1646 1793 1842 1889 1638 1695 1563 2040 2131 2000 1892 1841 1692 1438 1194 1121 972 895 949 1108 814 756 840 938 819 680 754 1636 1519 1557 1657 1766 1943 1492 1085 879 660 614 570 591 860 1154 1043 727 391 439 666 569 513 196 452 508 872 1007 915 1146 747 517 584 600 422 183 448 122 213 779 778 973 1074 1040 750
1255 1250 967 999 1106 1242 1223 1295 1334 1284 1272 1211 1318 1506 1583 1699 1759 1579 1535 1582 1504 1271 1153 1430 1646 1816 1589 1498 1277 845 718 988 1215 1205 1355 1016 656 697 741 736 616 948 1587 1554 1542 1437 1453 1478 1326 1297 1067 1098 944 1116 1009 1111 1053 951 867 577 536 489 573 825 677 765 686 569 1043 828 605 614 694 636 142 123 215 139 725 890 881 1051 991 1043 1020
951 872 842 769 898 928 1096 1235 1115 1222 1268 1390 1435 1652 1711 1680 1658 1422 1304 1342 1473 1364 1341 1329 1540 1739 1490 1352 1153 909 870 947 1096 1282 732 570 586 676 760 674 517 971 876 1634 1478 1564 1518 1404 1427 1328 1132 1186 1160 855 964 954 1333 1113 752 1356 1090 379 431 750 624 613 548 430 488 395 661 622 604 641 80 223 144 156 656 907 1001 1084 912 771 797
948 1007 865 722 897 973 934 1029 1294 1214 1240 1432 1467 1527 1613 1684 1533 1362 1399 1503 1304 1422 1421 1514 1483 1538 1288 1375 1365 1378 1020 852 1077 1162 958 503 633 1030 659 671 580 579 1217 2020 1765 1289 1029 1275 1197 1176 1215 1382 604 814 1039 1038 872 460 853 1234 867 646 420 755 712 447 632 547 731 776 628 531 717 782 289 445 290 222 503 703 832 774 691 284 627
1163 994 827 646 734 930 949 1073 1080 1188 1355 1331 1548 1541 1880 1652 1649 1622 1867 1914 1842 1798 1685 1435 1328 1066 1256 1190 1288 1355 1313 1074 872 872 964 716 529 545 596 648 707 651 821 1603 1808 1452 1097 1236 1236 1172 1317 804 328 733 963 875 420 491 860 1032 923 688 748 840 903 732 477 367 703 697 636 758 860 906 704 681 434 373 879 607 730 675 456 301 783
1255 1239 1065 514 472 711 857 1046 1049 1091 1429 1337 1321 1494 1500 1559 1569 1458 1724 1704 1742 1337 1000 1011 855 876 1058 1332 1234 914 990 1227 969 796 667 588 594 522 532 630 614 566 590 1399 1564 1228 903 1140 1507 1484 1607 628 913 885 681 411 558 954 829 936 884 856 695 870 1126 915 537 445 547 644 586 774 798 858 1016 1036 680 684 795 640 493 457 304 394 556
822 780 786 831 829 645 500 723 779 940 1125 1293 1265 1290 1499 1372 1352 1429 1828 1681 1537 1288 1089 900 928 822 1108 1030 1424 1122 839 1242 907 528 677 366 311 416 422 503 532 514 757 692 752 669 625 837 1057 910 1433 1433 1324 666 365 808 835 1222 896 982 959 809 778 777 924 950 856 694 666 472 767 670 659 718 1078 1044 931 798 522 726 553 350 309 386 507
893 884 834 773 725 704 582 590 556 474 777 1125 1287 1288 1327 1258 1324 1305 1369 1389 1092 1076 968 963 822 754 1217 1126 1305 1087 908 960 826 892 641 275 260 324 456 468 452 712 666 415 682 940 730 759 1077 1044 948 1281 531 377 491 516 991 541 646 745 871 861 880 822 988 967 924 754 593 557 586 332 349 496 736 913 595 399 376 686 688 286 436 445 480
Wind_Speed
28 31 30 30 27 28 30 28 29 29 29 29 29 31 31 30 30 30 30 30 31 32 32 32 32 31 30 30 29 28 27 28 28 29 28 28 27 26 23 22 20 19 20 20 20 20 21 21 25 23 24 23 21 20 19 19 17 17 17 16 15 14 12 12 12 13 11 11 10 11 11 10 10 10 11 12 12 10 8 8 7 10 9 11 13
31 31 29 30 28 29 32 32 31 30 30 30 30 32 31 31 30 29 29 30 31 31 31 31 31 30 31 29 29 28 28 29 29 29 28 28 27 26 23 22 21 20 21 21 21 21 21 22 24 26 23 22 21 20 19 18 18 17 17 16 15 14 12 13 12 12 13 13 14 13 13 12 11 11 12 12 13 12 12 13 12 9 9 12 12
30 30 29 30 29 29 32 33 33 32 31 31 31 31 32 32 30 28 29 30 30 30 30 30 30 31 31 30 29 29 29 29 29 29 29 28 27 25 23 21 20 21 22 21 21 20 20 22 26 26 24 23 20 20 19 18 18 17 17 15 15 14 12 11 10 10 11 12 13 14 14 14 12 11 12 13 14 14 14 14 14 12 9 12 12
29 28 28 29 28 27 29 33 33 34 34 33 31 30 29 28 28 28 28 27 27 27 29 30 29 28 28 29 28 29 30 29 28 30 31 29 27 25 22 21 21 23 23 22 21 20 20 22 24 26 26 22 20 19 19 18 18 17 17 17 16 14 13 11 10 9 10 13 13 11 8 9 10 12 12 13 14 15 15 16 16 14 12 11 13
27 27 27 27 27 26 28 31 32 34 34 35 33 33 31 30 29 27 27 25 26 27 29 29 29 29 29 30 30 29 29 27 26 28 28 27 25 24 22 21 21 24 24 22 21 21 21 22 23 23 24 22 20 18 17 16 17 17 17 17 16 16 14 12 10 9 9 11 13 9 7 8 8 11 12 12 13 14 15 15 15 14 14 14 13
25 26 26 25 26 27 27 29 31 34 34 35 35 34 33 31 29 28 28 28 28 28 28 29 29 29 30 30 30 29 28 26 25 28 26 27 25 24 23 22 22 24 24 22 21 21 21 22 22 22 21 20 19 17 17 16 15 15 15 15 14 13 13 11 9 8 8 10 14 4 5 7 7 7 10 12 13 13 13 13 13 13 14 16 15
24 24 25 25 25 27 27 28 31 31 33 34 34 33 32 31 29 28 28 28 28 28 28 28 29 29 30 30 30 29 27 26 24 26 26 27 26 23 23 23 22 23 24 23 22 20 21 21 22 21 20 20 18 17 16 15 15 16 15 15 14 13 11 9 8 8 10 12 5 5 4 6 7 6 11 10 11 13 14 14 15 15 14 14 15
24 23 26 26 25 28 27 28 31 31 31 32 33 33 32 30 28 28 28 28 27 28 28 28 29 30 31 31 30 29 28 26 24 24 25 28 28 25 22 23 23 21 22 22 21 19 18 20 20 20 20 19 18 16 16 15 15 15 15 15 15 14 12 11 10 7 8 5 4 6 6 8 8 7 11 13 13 13 14 15 15 15 15 14 14
24 25 25 26 26 31 27 27 29 31 31 31 31 31 30 29 28 28 28 28 28 28 28 29 30 31 30 30 30 28 28 27 24 22 23 27 29 25 22 22 21 20 19 18 17 17 18 18 18 18 19 19 18 16 16 14 14 13 13 14 15 14 12 10 10 14 10 9 nan 7 nan 10 10 10 11 14 14 14 16 16 17 16 16 16 16
23 23 23 23 26 28 27 27 29 31 31 31 31 31 31 29 28 28 28 28 27 27 28 29 29 30 30 30 29 29 27 27 24 23 22 22 23 25 21 21 21 20 20 19 18 17 17 17 17 17 18 19 18 17 17 16 14 13 13 14 13 12 10 9 10 7 10 10 12 11 11 11 12 11 12 13 15 18 19 20 19 17 17 19 20
23 21 21 22 28 26 26 26 27 30 31 31 32 32 31 30 30 29 29 28 28 28 28 29 30 31 30 29 29 28 27 26 25 25 25 24 24 24 22 21 18 17 18 17 16 15 14 14 14 15 17 18 18 17 17 17 15 15 14 14 13 11 9 11 13 12 13 nan 13 11 15 14 12 12 15 16 17 18 17 18 18 18 18 18 18
22 22 21 22 29 24 26 27 28 28 30 30 32 32 31 31 30 30 29 27 28 27 26 28 28 30 31 30 29 28 26 26 26 26 26 26 26 26 24 21 18 16 17 16 15 15 14 14 14 14 15 17 19 19 18 17 16 15 15 14 12 10 9 10 10 13 12 14 14 12 13 13 13 14 16 17 17 18 18 19 19 19 19 18 18
22 22 21 25 26 25 25 26 28 28 30 31 32 33 33 33 32 30 28 25 26 27 27 27 27 29 29 29 30 29 27 26 26 27 28 27 27 27 24 22 20 16 16 16 16 15 14 14 15 15 15 18 19 19 18 17 17 17 16 15 13 9 7 9 14 14 nan 15 13 13 15 13 13 15 16 17 18 19 19 20 20 20 20 20 20
21 21 21 23 23 27 25 26 27 28 30 31 32 32 33 33 32 30 27 25 27 28 26 25 26 27 28 28 28 26 26 26 26 27 28 27 27 27 24 23 22 18 14 15 16 16 15 15 16 16 17 18 18 18 18 18 17 17 16 15 12 10 10 14 15 14 14 15 15 15 14 13 14 14 15 16 17 18 19 20 20 21 21 21 21
20 21 21 23 24 26 28 25 28 29 29 29 29 30 30 30 30 29 27 27 27 28 27 26 26 26 28 29 29 28 28 28 29 29 29 28 28 27 24 24 23 19 14 14 16 16 16 16 16 17 18 18 17 17 18 18 17 17 16 14 12 10 9 13 13 14 14 14 15 15 15 13 13 13 14 14 15 16 17 19 19 20 21 21 21
20 20 22 22 25 26 26 28 28 29 28 29 29 29 28 28 28 28 26 26 27 27 27 27 26 27 29 28 28 29 29 28 28 29 28 27 26 26 26 25 23 22 16 14 15 15 15 16 17 17 19 20 19 18 18 18 17 16 14 11 8 4 2 9 11 13 13 14 15 14 14 14 14 14 15 15 15 15 16 17 18 19 20 20 20
20 20 21 22 25 26 26 28 30 30 28 28 29 28 27 27 27 27 25 25 25 25 26 27 26 27 28 28 28 27 27 28 30 29 28 26 24 25 26 25 23 23 20 15 14 15 15 17 18 18 19 20 19 18 19 18 17 15 15 12 8 2 2 5 12 12 12 14 14 14 14 14 14 15 16 16 16 15 15 16 17 18 20 21 21
19 20 20 22 25 26 27 28 30 30 30 29 28 27 27 26 26 26 25 24 24 24 26 26 26 26 27 28 28 28 30 30 31 30 30 27 25 25 25 25 24 23 22 18 14 15 16 17 19 19 19 20 20 19 20 19 17 16 15 14 10 5 6 10 13 14 14 14 15 14 15 16 14 17 17 17 17 17 17 17 17 18 19 20 21
18 19 19 21 24 25 27 27 28 29 30 27 27 28 26 25 25 25 24 24 24 24 25 26 26 25 26 27 28 30 31 31 32 31 30 28 25 24 24 24 24 22 22 21 17 15 17 19 20 20 20 21 20 20 20 20 19 17 17 16 13 9 8 11 14 16 16 14 15 16 16 15 17 18 19 20 20 19 19 18 19 19 19 20 21
17 17 18 20 22 24 25 26 27 26 27 26 27 28 26 25 23 24 24 24 24 24 24 24 24 23 24 25 29 30 32 33 34 31 30 28 24 22 23 23 23 22 21 21 20 17 17 20 22 21 21 21 21 20 20 20 19 19 17 17 16 16 11 13 15 15 15 16 16 17 18 17 18 18 19 19 19 19 19 20 20 20 20 19 21
15 17 18 19 22 23 26 23 24 26 25 25 26 26 26 26 24 25 25 24 24 23 21 21 22 22 23 24 26 26 29 30 30 29 30 25 23 23 22 22 22 22 21 20 22 21 19 21 23 23 23 23 22 20 20 20 20 18 19 17 18 13 14 14 15 15 17 17 18 19 21 19 18 18 18 18 19 20 20 20 20 20 nan nan nan
17 17 18 20 20 23 23 25 24 25 23 24 24 24 24 22 20 22 22 23 22 20 17 18 20 21 22 24 23 23 24 27 27 30 24 26 23 21 21 21 22 22 21 20 22 23 23 22 23 25 24 24 23 17 17 19 19 19 16 16 13 17 15 14 14 15 17 18 19 20 21 21 20 19 19 19 19 nan nan nan nan nan nan nan nan
17 18 19 20 20 21 23 24 25 24 25 25 23 24 24 19 18 18 19 21 19 15 15 17 19 21 22 22 21 21 22 24 25 26 25 24 25 22 21 20 20 21 21 22 23 25 25 24 24 25 24 22 17 16 15 16 18 18 16 12 15 15 15 14 14 15 17 19 19 22 21 20 19 20 20 19 20 20 20 nan nan nan nan nan nan
18 18 19 19 19 21 23 22 23 25 24 22 22 24 22 18 17 17 17 18 17 13 15 15 17 19 21 21 20 21 22 23 26 30 30 26 25 22 20 20 20 20 23 23 25 25 27 25 24 24 20 16 17 16 16 17 17 16 14 15 16 16 14 14 15 16 18 20 20 21 20 20 20 19 19 19 20 21 nan nan nan nan nan nan nan
17 18 19 20 21 21 21 21 22 23 23 23 24 22 21 18 18 17 16 18 16 15 15 15 17 19 19 20 20 22 21 22 24 25 25 25 24 20 16 15 16 19 19 23 23 24 23 23 20 18 15 16 16 17 16 17 17 17 17 16 16 16 16 15 15 16 18 19 19 17 20 20 20 20 nan nan nan nan 22 22 nan nan nan nan nan
16 16 18 21 22 22 21 22 22 23 23 23 23 24 20 19 19 18 18 18 18 18 17 17 18 20 20 21 21 22 21 21 22 22 24 24 22 19 16 16 16 19 18 21 23 23 23 22 18 15 16 18 18 17 17 17 17 17 18 17 17 16 16 15 15 15 17 17 18 17 18 19 nan nan nan nan nan nan nan nan nan nan nan nan nan
15 16 18 19 21 22 21 22 23 23 23 22 22 23 21 20 19 19 17 17 18 18 19 19 20 21 21 21 21 21 21 20 21 21 21 22 21 17 16 17 17 18 17 19 22 22 22 20 16 15 18 20 19 19 18 17 17 18 18 17 17 17 15 15 15 16 16 17 18 18 18 17 nan 19 nan nan nan nan nan nan nan nan nan nan nan
14 16 17 19 20 22 23 23 23 24 23 22 22 21 21 20 20 20 17 17 16 17 19 19 21 21 21 21 20 20 20 20 19 21 20 19 20 18 17 18 18 18 18 18 21 22 21 19 16 17 19 21 20 19 19 19 18 17 18 17 17 16 14 14 15 15 16 17 17 17 14 15 18 20 nan nan nan nan nan nan nan nan nan nan nan
14 16 16 17 20 21 23 23 23 23 22 22 21 20 21 20 21 19 18 18 15 16 18 20 20 20 20 20 20 19 19 19 18 20 19 18 19 19 19 19 20 19 18 18 21 21 21 19 18 19 20 21 21 20 19 19 18 18 17 17 16 16 15 14 14 14 15 16 17 18 15 18 18 20 nan nan nan nan nan nan nan nan nan nan nan
13 15 16 17 20 22 23 23 22 20 20 21 20 21 21 21 21 19 20 18 16 17 18 18 18 19 20 20 19 19 19 18 18 18 18 18 17 17 19 20 19 20 19 18 20 21 21 20 19 20 21 21 21 21 19 19 18 18 16 17 15 16 15 14 13 14 15 15 17 18 17 18 nan nan 15 nan nan nan nan nan nan nan nan nan nan
15 15 16 17 20 21 23 23 21 19 19 19 21 22 22 21 21 21 20 18 19 18 18 18 18 19 20 21 20 20 19 18 17 17 17 17 17 16 17 19 20 20 20 19 19 20 21 21 19 20 21 20 21 21 19 19 18 17 16 16 14 15 15 14 13 13 15 16 16 16 nan nan nan 14 12 13 nan nan nan nan nan nan nan nan nan
14 16 18 18 21 23 24 22 20 19 19 20 22 21 22 22 22 21 21 20 20 19 19 19 19 20 21 22 22 21 19 18 17 16 16 17 17 16 17 18 20 21 20 20 20 19 20 21 20 20 21 21 20 20 20 18 17 16 16 16 14 15 15 14 14 13 13 15 16 16 16 nan 17 17 17 18 nan nan nan nan nan nan nan nan nan
17 18 20 22 24 26 25 25 22 21 19 20 21 21 22 22 23 21 22 22 20 19 20 20 20 19 20 22 23 22 20 19 18 17 17 16 17 17 17 18 19 21 21 21 21 20 21 22 21 20 22 21 19 20 19 18 17 16 17 15 14 14 14 14 14 14 13 13 14 15 16 18 20 nan nan nan nan nan nan nan nan nan nan nan nan
20 22 24 23 26 24 27 23 24 21 22 20 21 18 21 21 22 22 22 21 20 20 21 21 20 19 19 22 22 22 21 19 19 18 17 18 18 18 18 18 19 21 22 21 21 20 21 22 22 21 22 20 18 19 18 17 17 16 15 15 14 15 13 13 14 13 12 13 14 14 14 16 18 19 21 22 nan nan nan nan nan nan nan nan nan
20 26 28 27 24 24 24 22 16 19 19 19 18 17 18 18 21 21 21 19 20 20 21 21 20 19 19 20 22 23 18 20 20 18 18 18 19 19 19 20 20 21 21 21 20 21 21 21 22 21 21 19 18 17 16 16 16 15 16 15 15 14 12 13 13 12 12 13 12 14 13 13 14 nan nan nan 20 17 14 nan nan nan nan nan nan
22 28 28 25 27 26 26 21 16 19 18 18 18 20 20 21 18 20 21 21 20 21 21 20 20 20 20 19 22 23 23 18 21 17 17 19 19 19 21 22 22 23 21 21 20 20 21 20 21 20 20 19 18 17 16 16 15 16 16 16 14 12 11 12 12 11 11 12 13 14 14 14 13 nan nan nan nan 18 16 nan nan nan nan nan nan
25 26 27 27 27 26 23 19 19 19 19 20 19 20 22 21 21 21 21 22 22 22 21 21 21 20 19 19 21 22 23 20 18 18 21 19 18 19 22 23 23 23 23 22 20 19 20 21 21 20 19 19 18 17 16 15 15 15 16 14 13 11 10 11 12 11 11 10 12 13 14 14 15 nan 14 16 17 17 17 15 14 13 12 10 nan
23 24 25 27 29 25 21 17 19 20 23 24 23 22 22 23 23 23 22 22 22 22 22 22 22 21 20 20 20 21 21 24 21 18 20 19 19 20 21 23 24 25 24 22 20 19 20 21 21 21 19 18 17 17 16 15 15 15 15 13 13 11 10 11 10 10 9 11 12 13 13 15 14 15 16 17 16 16 15 15 14 14 13 11 10
23 24 26 27 28 26 22 19 18 20 25 30 26 23 22 23 24 24 24 23 22 23 24 24 23 23 21 20 20 20 22 24 25 21 18 20 19 21 21 24 25 26 25 23 21 19 20 21 21 22 20 18 17 16 15 15 15 15 14 13 13 10 11 11 10 9 9 11 13 12 13 13 14 15 17 16 14 14 14 13 12 12 13 12 8
23 23 25 27 28 26 20 18 18 21 24 27 29 26 24 23 22 23 24 24 24 25 25 25 26 24 21 21 21 20 21 23 25 26 21 21 22 21 22 24 25 26 25 23 22 20 21 20 20 20 20 18 17 16 16 16 17 16 15 14 12 11 10 11 10 10 9 11 12 12 14 12 13 15 15 14 13 13 12 10 9 8 11 11 10
22 22 23 25 28 28 23 19 19 21 23 28 27 26 27 26 23 22 23 25 26 27 26 27 28 25 22 22 23 24 24 25 25 25 24 25 25 22 23 25 24 23 23 23 22 20 21 21 22 21 19 17 17 17 16 16 17 17 15 13 12 10 11 9 9 9 10 11 13 11 13 12 11 14 14 13 12 11 10 9 8 7 6 10 6
22 21 21 23 24 25 21 17 18 19 17 20 22 24 25 27 27 24 22 24 28 30 29 29 29 28 26 25 25 26 26 23 24 24 24 25 27 26 28 27 21 22 23 23 21 21 21 21 21 20 18 16 17 17 16 17 16 14 13 13 12 12 10 9 8 10 10 11 12 12 12 12 10 13 13 12 11 9 8 7 7 6 5 8 10
23 22 22 21 23 22 18 19 19 17 17 17 18 20 23 26 27 25 23 25 28 28 29 28 28 27 27 27 26 26 24 22 23 26 26 25 26 26 27 27 21 21 24 24 22 22 22 21 20 18 18 18 18 17 15 14 14 13 10 12 12 10 12 8 9 10 11 12 12 13 13 12 11 10 12 12 11 10 8 7 6 5 5 5 5
27 28 26 23 23 23 20 19 20 19 18 19 17 18 20 23 23 19 20 22 25 30 31 29 25 25 26 26 26 27 25 23 24 25 27 27 25 24 25 25 23 24 24 24 23 23 23 21 20 19 18 19 17 17 15 12 16 15 11 11 13 10 12 8 9 12 12 12 12 13 13 12 13 11 10 11 11 10 10 8 8 6 5 4 5
29 28 27 26 23 24 23 23 23 22 20 18 17 16 18 20 21 17 18 21 23 24 25 26 26 26 26 25 24 25 24 24 25 25 26 28 28 24 24 22 22 23 24 23 23 21 22 21 21 21 19 20 20 19 15 12 12 11 13 16 15 12 9 15 15 14 13 13 12 14 14 13 14 12 11 11 11 11 11 11 8 8 6 6 6
30 29 27 26 24 23 24 24 23 22 21 19 17 19 21 22 21 19 20 22 23 25 22 23 25 27 26 25 23 24 25 24 24 25 27 29 28 26 24 24 22 27 22 22 22 22 20 19 19 19 21 20 20 19 16 13 13 11 8 13 16 15 12 15 13 14 13 11 12 13 14 13 14 13 nan 11 12 12 12 11 11 10 8 7 8
30 29 27 25 24 23 23 23 22 21 22 20 21 23 24 23 20 18 19 20 21 24 25 25 25 27 27 24 22 24 25 23 23 24 26 28 29 29 27 28 27 26 24 22 22 22 19 17 19 19 21 24 23 18 15 15 16 12 9 12 13 12 11 13 13 14 13 12 11 14 13 14 14 14 12 12 12 13 12 11 12 11 10 9 9
29 29 27 25 24 23 22 22 22 22 23 22 20 21 21 22 19 17 19 20 21 22 24 26 28 27 23 21 22 23 23 23 23 24 26 27 29 31 29 29 31 27 23 20 20 21 18 17 19 19 22 23 21 18 15 15 13 13 12 10 12 12 12 12 12 10 12 11 13 13 14 15 15 14 13 13 13 14 13 12 12 13 10 11 11
30 30 27 24 23 23 23 22 21 21 22 23 22 20 20 19 19 19 20 21 22 22 23 24 25 26 23 22 21 21 23 25 27 27 25 26 29 29 28 28 28 24 20 20 20 20 17 17 20 21 20 20 19 20 18 14 11 12 15 12 12 11 12 13 13 11 8 10 12 15 16 16 14 14 14 13 14 14 13 11 12 13 12 11 11
29 30 29 25 24 23 22 21 21 21 22 23 23 22 21 21 20 20 20 21 23 23 23 22 23 24 24 23 23 23 24 27 29 26 24 26 27 23 22 25 27 22 24 21 17 18 16 17 17 18 19 19 20 18 13 13 11 13 16 16 15 13 13 13 13 12 9 6 9 14 16 18 15 15 15 15 14 14 14 13 12 13 15 13 11
29 29 28 26 23 23 22 22 23 21 23 24 24 24 23 22 22 22 22 23 24 25 25 24 24 24 24 24 23 23 24 25 28 28 26 28 26 20 17 22 23 21 22 19 16 17 18 16 14 14 16 19 19 14 10 9 15 16 13 16 16 13 13 13 14 13 10 10 9 12 15 15 13 17 16 16 14 14 15 15 13 14 15 14 13
Wind_Direction
318 317 316 314 319 320 321 319 317 316 314 315 313 314 314 314 316 318 319 320 322 322 323 325 325 327 329 330 328 327 327 327 330 331 330 329 327 324 323 319 316 317 315 313 314 313 310 311 305 307 314 314 315 310 306 307 306 306 302 305 307 310 314 314 313 308 318 307 298 292 287 295 285 273 270 264 261 260 260 268 265 256 257 255 252
319 317 314 319 318 319 321 320 319 317 314 314 314 314 315 315 317 320 320 321 321 321 321 322 323 325 327 327 325 324 328 332 334 330 326 326 326 323 321 319 316 313 315 316 314 311 313 313 307 310 314 315 312 313 311 311 309 307 309 307 307 310 314 314 311 312 311 307 299 294 290 284 277 275 272 264 261 255 245 234 236 259 258 257 252
315 316 317 317 319 319 319 319 320 318 316 316 316 315 316 318 320 320 320 320 319 318 319 320 322 323 324 324 324 329 332 334 332 325 324 325 326 323 317 312 311 314 315 314 313 313 315 314 313 315 315 314 316 316 314 314 313 308 308 309 307 309 311 309 310 302 299 300 302 298 292 282 274 273 270 267 264 260 251 248 250 250 258 258 259
314 315 317 315 317 318 316 318 318 319 319 317 316 316 314 315 317 318 318 316 314 313 317 319 320 323 322 321 326 327 328 331 329 326 327 331 327 319 316 315 316 313 313 314 313 316 317 316 315 316 318 322 319 314 313 312 309 309 308 307 309 309 310 309 309 309 316 318 328 330 310 295 281 262 263 267 266 263 263 262 258 258 262 261 268
313 310 312 317 319 317 317 318 318 319 318 318 317 317 316 316 317 315 314 311 310 312 315 317 320 321 320 322 324 324 328 330 327 323 328 329 324 321 317 314 314 313 314 315 314 315 317 316 315 316 318 316 314 312 310 310 307 306 307 307 309 310 312 311 315 328 337 352 354 4 300 291 278 265 267 270 268 265 262 262 260 260 260 256 248
310 305 309 315 319 319 319 318 318 318 317 317 316 316 317 315 315 313 311 310 310 311 314 317 319 319 319 322 321 323 325 327 324 324 331 328 327 320 316 315 315 314 314 314 313 314 316 317 318 318 317 314 311 310 310 308 307 307 308 306 304 306 307 314 327 338 358 16 30 325 303 288 283 278 273 275 272 266 263 261 264 266 269 273 264
306 306 310 317 321 321 320 318 316 315 315 314 313 314 314 312 311 310 308 308 308 310 312 315 317 317 318 318 319 322 325 325 323 327 332 328 326 323 317 316 316 315 315 314 313 316 318 320 322 322 319 316 314 312 311 309 309 309 310 308 303 303 305 311 329 6 27 35 300 290 270 270 273 277 273 269 268 264 263 264 260 257 256 255 255
307 312 316 317 322 318 319 317 315 314 313 311 311 312 311 309 308 308 307 306 307 309 311 313 313 314 315 317 318 322 323 324 323 327 334 331 330 328 320 316 313 313 314 313 313 313 318 320 323 325 322 316 314 313 311 309 310 309 307 306 305 306 310 321 337 356 59 307 294 275 275 267 273 273 272 276 277 281 276 268 265 264 264 271 281
312 318 320 316 318 319 318 317 316 315 313 311 311 309 307 305 305 305 304 304 306 308 309 311 311 311 314 316 318 321 322 323 323 327 333 334 333 326 322 315 313 313 314 318 314 314 318 320 325 328 326 319 316 316 314 314 310 304 302 303 304 307 317 329 343 14 334 300 nan 286 nan 279 272 272 266 266 268 274 280 282 277 268 256 251 252
316 317 318 319 318 320 319 318 319 317 316 314 311 308 307 304 303 303 303 303 303 305 306 306 306 309 314 316 318 321 322 322 321 323 327 326 325 321 314 311 313 315 319 317 310 313 316 321 326 329 327 322 321 319 316 314 309 304 301 301 304 308 316 351 355 327 295 281 268 257 240 246 269 262 270 273 266 257 249 242 241 250 260 261 262
316 316 321 319 320 318 318 319 320 321 319 316 313 311 308 307 306 304 303 303 302 303 304 304 305 307 310 312 316 318 320 318 318 317 318 321 320 315 310 307 311 318 318 317 314 314 315 317 324 328 330 330 324 320 314 311 308 304 304 302 306 320 345 348 23 301 294 nan 279 277 267 259 266 270 274 273 268 266 265 264 265 267 267 263 260
316 318 321 316 312 317 318 319 322 324 322 320 317 314 311 309 306 303 302 301 301 302 300 300 303 306 308 311 314 314 317 319 319 318 319 321 320 314 305 305 311 316 319 318 317 316 316 318 320 326 328 331 328 319 313 309 307 305 306 308 311 324 4 33 336 314 295 281 283 280 276 275 271 274 279 276 274 274 273 271 270 265 260 259 261
316 320 317 311 323 318 320 321 324 325 324 323 321 318 316 311 307 303 300 297 296 296 294 297 300 303 307 310 314 315 315 317 315 317 318 320 321 316 311 312 314 318 318 319 321 321 320 319 322 324 324 324 323 317 311 307 306 306 306 307 311 324 349 34 310 304 nan 295 285 275 277 276 274 280 280 281 279 277 274 273 273 270 265 262 261
315 316 315 317 322 322 321 325 326 326 326 325 322 320 316 311 308 304 298 295 293 292 292 294 297 299 303 303 304 307 310 311 312 316 319 320 322 321 314 311 315 319 322 323 324 324 322 321 320 319 317 315 317 315 311 308 306 306 307 305 309 322 336 298 302 302 296 288 281 280 278 283 279 280 283 282 282 280 279 278 277 275 271 268 264
314 315 320 319 322 326 325 325 326 326 326 325 321 318 314 310 305 301 296 294 293 292 294 294 294 295 297 299 304 307 308 312 315 316 320 324 325 322 313 309 312 317 325 326 324 324 321 320 317 314 311 311 312 313 310 307 306 305 307 310 321 343 12 308 300 299 298 295 292 289 286 283 287 287 286 289 286 287 286 284 282 280 276 271 267
316 319 321 322 326 324 330 328 327 326 325 323 320 317 313 308 301 298 296 293 292 293 295 295 295 293 296 301 304 307 309 310 311 312 315 319 321 323 317 311 313 316 324 330 326 324 319 318 315 311 309 309 310 310 306 305 305 305 307 309 319 336 78 301 302 295 293 290 282 277 281 279 271 279 286 283 282 286 286 286 285 283 281 276 273
317 322 321 324 327 328 330 332 328 325 323 322 320 316 309 303 299 297 295 293 293 293 294 296 296 294 298 300 302 303 305 306 309 309 312 315 317 320 318 311 311 316 320 330 328 322 317 315 314 311 307 305 304 302 301 301 302 304 304 307 306 310 86 312 301 298 293 291 296 294 290 292 284 281 283 284 285 283 285 283 281 279 278 278 277
318 319 322 324 329 330 330 331 329 331 325 322 317 312 308 303 300 298 295 292 290 290 292 294 295 293 296 297 296 298 302 305 305 307 310 314 316 318 317 313 312 314 319 324 324 318 316 313 313 309 304 300 299 299 297 298 300 301 305 303 306 326 308 305 300 300 295 293 287 286 288 278 285 290 289 289 288 285 280 279 278 279 279 279 280
311 316 320 326 330 330 332 329 332 329 324 323 321 311 306 304 299 296 292 286 285 286 287 291 292 293 292 294 296 300 304 303 302 303 305 311 313 313 314 313 310 313 318 319 317 315 314 313 311 306 301 295 294 295 296 298 299 301 303 306 313 337 6 318 298 300 299 295 292 289 287 285 288 291 291 292 290 287 281 280 278 277 278 278 278
307 313 318 323 331 335 332 332 332 325 323 320 318 312 307 303 297 291 289 286 286 287 288 291 294 295 297 300 303 308 308 303 302 302 304 307 316 316 309 309 308 309 314 314 312 312 313 313 308 303 296 293 292 293 295 298 301 299 306 312 328 354 337 298 296 292 290 286 285 287 286 286 291 293 290 288 286 285 286 281 281 281 279 279 279
302 315 317 327 332 334 334 331 325 321 319 316 313 311 308 308 302 296 295 292 288 291 295 295 297 302 304 301 304 309 306 304 307 304 306 307 297 301 308 307 307 304 308 307 306 310 313 312 305 299 296 294 292 293 294 298 299 303 306 325 343 330 296 301 300 304 301 300 297 290 292 291 291 290 289 290 289 289 289 288 286 285 nan nan nan
304 311 320 324 332 332 331 331 322 316 320 315 308 305 305 307 300 298 297 294 294 298 301 302 304 301 308 302 305 304 306 306 306 303 305 300 304 303 303 305 303 298 296 299 301 307 311 308 304 300 296 297 307 303 301 296 299 302 317 330 337 294 300 296 292 294 294 295 295 297 296 292 292 291 293 290 288 nan nan nan nan nan nan nan nan
306 313 317 321 326 330 327 326 324 321 320 315 306 301 303 295 293 290 286 295 294 298 296 305 302 303 304 301 300 301 304 303 304 305 302 296 296 303 295 298 297 293 290 293 298 304 309 311 303 301 301 314 320 296 300 301 299 307 322 330 291 293 288 287 293 293 289 289 292 290 292 295 295 292 290 292 292 291 290 nan nan nan nan nan nan
306 310 312 316 322 325 323 317 323 319 311 310 306 299 297 290 282 281 280 284 283 282 293 301 297 299 298 298 297 300 302 301 302 299 300 304 299 300 292 290 292 291 289 293 297 302 307 305 303 303 307 317 291 299 294 294 298 303 296 290 289 291 291 287 282 285 291 292 290 293 296 295 293 293 292 294 297 297 nan nan nan nan nan nan nan
302 308 307 314 321 319 319 313 317 315 314 305 301 295 291 283 277 277 276 276 267 265 280 293 296 300 303 297 300 300 301 302 306 308 310 307 305 301 295 290 291 293 304 297 302 301 311 308 302 310 304 297 293 284 289 291 293 292 287 286 290 288 283 281 284 286 288 287 286 292 290 291 294 295 nan nan nan nan 292 291 nan nan nan nan nan
298 308 312 315 315 317 318 315 317 316 311 304 299 288 287 281 278 275 274 271 264 262 275 288 295 300 300 298 301 301 302 304 307 308 309 308 306 301 295 286 290 294 301 298 298 303 306 308 308 308 297 294 289 287 285 289 290 290 288 289 290 294 286 279 278 283 283 284 288 288 285 284 nan nan nan nan nan nan nan nan nan nan nan nan nan
302 307 310 311 312 316 318 315 316 314 311 300 293 288 287 277 273 273 273 272 265 268 279 287 292 296 297 298 301 303 304 305 307 305 307 307 303 297 289 287 291 293 297 293 295 300 306 309 308 298 293 293 293 288 289 289 287 289 290 292 293 288 283 280 282 278 279 283 283 284 287 293 nan 294 nan nan nan nan nan nan nan nan nan nan nan
299 305 309 310 313 320 322 321 316 312 306 297 290 286 280 275 269 267 267 266 268 270 279 283 284 289 294 296 301 303 305 302 304 303 303 306 301 295 288 292 292 294 295 292 294 300 303 306 306 296 293 293 293 291 287 288 290 287 287 289 294 292 281 277 274 277 284 289 292 288 282 287 291 293 nan nan nan nan nan nan nan nan nan nan nan
305 306 309 313 315 320 320 319 315 312 299 291 286 278 275 272 267 265 263 263 264 267 271 277 280 283 290 296 299 299 301 300 302 300 301 304 301 297 296 295 296 296 295 295 297 298 297 300 300 296 292 293 291 288 287 288 288 289 288 290 287 285 284 279 281 279 280 289 290 286 286 289 289 292 nan nan nan nan nan nan nan nan nan nan nan
304 305 307 313 313 315 316 315 308 300 291 284 277 274 269 266 264 260 259 261 258 260 266 270 275 281 286 293 297 296 295 296 298 299 299 301 299 298 297 294 292 289 293 294 292 291 293 294 295 293 292 293 290 287 287 288 288 285 288 288 292 287 284 282 282 283 283 280 286 290 286 285 nan nan 279 nan nan nan nan nan nan nan nan nan nan
301 311 309 310 310 313 309 303 300 290 280 276 271 266 261 258 257 255 254 254 254 257 261 266 273 280 285 289 291 293 293 295 295 296 294 293 292 292 292 291 288 288 291 294 291 288 288 290 291 289 287 287 286 285 287 287 287 287 285 289 286 283 280 279 276 276 285 288 290 301 nan nan nan 286 282 290 nan nan nan nan nan nan nan nan nan
301 304 306 303 300 300 293 287 280 274 269 267 262 255 253 250 250 247 248 249 253 254 260 266 271 278 286 290 292 294 296 294 291 290 285 283 282 283 283 285 286 285 290 292 291 287 286 287 288 285 282 280 282 283 281 285 284 282 282 281 283 278 278 279 282 281 277 284 295 298 303 nan 301 298 296 289 nan nan nan nan nan nan nan nan nan
292 298 298 291 291 284 277 274 265 263 265 258 257 252 248 247 246 244 245 247 252 255 260 266 272 280 287 292 294 298 297 294 291 289 282 277 274 274 275 279 282 285 288 293 293 286 283 283 285 283 281 281 280 279 280 280 279 276 279 281 277 274 271 280 281 285 288 295 295 299 304 308 309 nan nan nan nan nan nan nan nan nan nan nan nan
292 294 290 287 279 263 255 251 250 257 253 235 235 249 255 252 247 245 245 250 253 257 263 266 272 280 287 293 297 301 303 297 295 291 283 277 272 272 272 271 274 281 283 287 287 284 281 283 285 281 279 279 279 278 279 279 277 274 275 273 271 270 274 279 279 283 290 293 294 297 299 309 315 321 317 309 nan nan nan nan nan nan nan nan nan
289 284 277 281 285 275 257 256 261 281 294 283 278 268 258 254 252 258 259 259 261 264 269 275 279 282 287 293 297 296 301 304 298 287 285 283 278 273 271 268 269 275 280 283 282 281 281 285 285 284 279 277 275 273 274 273 273 271 267 266 267 270 275 274 278 284 288 288 296 297 298 299 307 nan nan nan 313 309 312 nan nan nan nan nan nan
284 289 302 298 297 295 293 295 292 290 296 285 273 267 269 274 272 272 273 275 272 273 276 278 281 285 290 294 302 304 305 309 298 293 292 290 284 275 270 266 267 270 274 277 278 280 281 282 283 284 282 277 272 271 269 267 265 264 264 264 266 268 271 277 282 285 284 291 297 298 299 299 310 nan nan nan nan 310 307 nan nan nan nan nan nan
295 299 302 304 299 297 297 301 287 283 285 285 279 270 270 274 275 278 280 282 281 279 280 281 285 290 292 296 299 303 302 300 303 299 293 293 285 277 270 269 268 266 269 273 275 276 277 279 279 280 280 275 271 269 267 263 261 261 263 268 270 268 265 267 275 279 283 292 292 296 300 301 308 nan 315 312 314 316 313 312 311 303 303 302 nan
295 296 301 299 297 300 301 292 292 299 291 286 286 283 284 288 290 285 284 285 286 284 284 288 292 293 295 295 298 301 302 298 298 299 293 291 285 278 274 271 268 267 267 270 272 272 274 273 276 277 277 275 268 268 269 265 260 260 264 267 270 267 259 263 266 274 281 287 289 290 295 303 309 313 311 312 317 318 317 312 308 303 299 293 287
290 295 298 298 297 298 301 304 303 300 292 295 300 296 293 293 292 293 293 292 288 288 288 290 291 292 293 297 300 302 304 302 292 285 287 288 286 278 275 275 270 268 266 268 270 271 272 272 277 278 277 272 264 263 263 262 261 258 260 266 264 262 258 257 261 260 272 281 283 289 297 308 309 317 312 312 317 320 322 321 325 330 318 301 287
293 299 302 302 300 298 295 297 301 300 295 299 305 303 298 297 296 295 296 294 290 286 286 285 284 287 291 293 295 295 296 292 286 279 272 278 276 279 277 277 275 271 267 268 270 269 272 273 278 282 279 270 258 257 261 260 259 259 259 261 262 263 261 262 263 269 272 284 291 299 300 306 314 314 313 312 319 323 324 324 323 330 311 307 314
294 299 300 299 298 301 308 317 306 302 300 304 307 307 303 297 294 293 290 289 292 291 289 287 286 287 289 290 290 288 288 287 279 287 288 281 283 276 268 275 277 274 267 262 266 269 270 267 269 274 276 267 258 256 259 258 261 259 260 267 264 262 263 265 266 273 280 287 288 298 300 304 312 315 315 318 323 331 329 331 332 328 329 316 337
286 293 292 290 290 297 308 301 288 291 295 300 304 308 305 301 300 296 290 286 289 295 297 296 295 292 294 289 283 281 285 288 290 293 291 286 286 283 280 268 265 275 268 258 260 262 265 266 267 273 270 261 255 261 259 261 260 263 272 268 260 258 262 265 278 284 286 285 293 296 299 301 307 312 312 318 325 333 336 336 334 330 346 338 334
274 277 272 272 279 290 290 285 285 283 289 294 297 300 306 310 304 292 288 282 281 286 290 290 293 293 294 292 288 289 293 297 299 298 292 291 288 283 282 279 268 270 270 259 258 261 258 264 269 269 265 252 252 258 262 262 256 269 274 273 269 268 266 265 280 289 291 295 299 304 300 305 308 312 310 313 317 324 331 321 318 328 341 347 348
258 258 255 256 269 270 269 275 270 275 285 291 290 291 303 316 314 292 279 281 284 288 289 286 287 291 296 294 289 290 292 295 298 302 298 296 293 284 280 280 270 267 272 261 255 256 253 255 263 263 255 252 254 259 257 254 229 254 269 274 269 267 273 285 286 285 289 296 304 304 303 310 309 312 311 311 307 317 313 311 305 314 320 325 310
253 253 253 255 263 264 268 273 277 273 274 277 291 297 305 320 323 305 280 278 285 291 293 292 292 293 295 297 295 291 293 295 297 302 298 293 288 282 281 280 273 270 265 261 255 251 250 251 258 257 252 246 252 255 258 254 248 232 231 257 262 270 264 261 283 277 290 295 306 307 307 306 309 309 314 309 307 309 304 302 308 303 314 312 311
254 253 256 258 261 266 268 272 277 277 273 272 281 290 297 307 314 309 292 280 278 286 299 300 294 296 297 293 293 294 293 293 295 299 298 296 293 288 287 279 274 260 256 255 253 246 244 252 259 254 250 242 240 253 251 248 249 249 250 235 237 251 250 268 276 281 289 291 293 301 299 305 306 310 nan 303 311 310 305 307 306 306 304 307 301
250 254 259 261 263 268 269 268 270 272 275 278 282 290 296 302 306 301 293 285 275 276 284 286 285 279 278 281 288 291 290 290 293 297 299 301 296 288 285 280 270 255 243 248 247 242 242 247 256 254 247 245 239 245 245 251 249 242 250 248 254 260 251 267 277 275 291 290 290 294 296 303 306 309 310 303 307 305 302 300 303 301 300 302 299
251 254 258 261 261 262 264 267 271 272 276 277 282 286 290 295 297 289 283 282 278 275 279 282 280 282 287 286 282 284 285 285 287 293 296 300 297 290 282 271 261 240 232 242 242 238 242 245 252 251 246 246 250 246 248 251 258 266 271 270 263 251 253 264 256 257 278 295 296 292 294 300 301 305 305 299 304 301 300 302 301 299 302 298 300
253 257 260 260 261 261 262 264 267 272 276 280 282 286 291 290 287 282 278 278 276 274 282 287 285 283 286 287 282 280 282 283 286 293 302 305 298 295 288 277 264 247 239 240 237 238 245 251 254 250 245 248 255 256 250 251 258 259 279 278 272 271 268 269 267 266 271 286 296 302 301 300 299 300 301 298 298 299 298 298 295 297 294 291 298
256 258 260 261 260 259 258 263 263 267 268 272 282 289 293 290 287 284 282 279 278 276 277 281 286 285 284 284 284 283 282 283 289 297 301 300 298 292 274 270 267 250 238 233 232 242 241 253 257 247 243 253 253 260 264 252 252 255 260 275 275 273 271 274 274 274 273 264 278 300 301 301 304 301 300 299 303 304 302 293 297 297 290 292 295
258 260 262 263 264 261 259 260 258 260 263 265 266 269 273 276 275 273 274 274 275 276 273 273 276 279 283 284 284 280 278 282 288 292 295 296 301 300 277 264 258 248 237 229 224 241 242 250 249 242 248 258 249 243 249 264 259 257 268 272 275 274 275 278 277 277 278 284 285 290 295 301 297 297 298 300 303 306 302 296 296 297 292 296 294